Flag for El Salvador Weather past 2 weeks in San Salvador, El Salvador

Now
82 °F

Sunny.


Feels Like: 85 °F
Forecast: 62 / 88 °F
Wind: 6 mph from North

Location: San Salvador / Ilopango

Current Time: Feb 1, 2015 at 12:11:27 PM

Latest Report: Feb 1, 2015 at 10:50 AM


Visibility: 10 mi

Pressure: 30.04 "Hg

Humidity: 58%

Dew point: 66 °F

Location of San SalvadorLocation

Historic Weather in San Salvador — Graph

°F

San Salvador temperature yesterday

Maximum temperature yesterday: 90 °F (at 12:50 PM)
Minimum temperature yesterday: 63 °F (at 5:50 AM)
Average temperature yesterday: 76 °F

Past Weeks' High & Low Weather Summary

 TemperatureHumidityPressure
High90 °F (Jan 31, 12:50 PM)100% (Jan 27, 8:50 PM)30.18 "Hg (Jan 27, 8:50 PM)
Low61 °F (Jan 28, 6:50 AM)36% (Jan 31, 12:50 PM)29.86 "Hg (Jan 28, 9:50 AM)
Average75 °F67%30.02 "Hg
* Reported Jan 17 10:50 AM — Feb 1 10:50 AM, San Salvador, Weather by CustomWeather, © 2014

Note: Actual official high and low records may vary slightly from our data, if they occured in-between our weather recording intervals... More about our weather records

Advertising

San Salvador weather history for previous 24 hours

 ConditionsComfort  
Time TempWeatherWind HumidityBarometerVisibility
10:50 AM
Feb 1
82 °FSunny.6 mph58%30.04 "Hg10 mi
9:50 AM77 °FSunny.7 mph69%30.04 "Hg10 mi
8:50 AM72 °FSunny.9 mph78%30.04 "Hg10 mi
7:50 AM66 °FSunny.7 mph83%29.98 "Hg10 mi
6:50 AM63 °FSunny.3 mph88%30.01 "Hg10 mi
5:50 AM64 °FClear.3 mph88%29.98 "Hg10 mi
11:50 PM
Jan 31
68 °FClear.3 mph78%30.01 "Hg10 mi
10:50 PM68 °FClear.5 mph78%30.01 "Hg10 mi
9:50 PM70 °FClear.5 mph73%30.01 "Hg10 mi
8:50 PM72 °FClear.6 mph69%30.01 "Hg10 mi
7:50 PM73 °FClear.7 mph69%29.98 "Hg10 mi
6:50 PM77 °FClear.6 mph69%29.95 "Hg10 mi
5:50 PM82 °FPassing clouds.13 mph55%29.89 "HgN/A
4:50 PM84 °FPassing clouds.5 mph51%29.89 "HgN/A
3:50 PM88 °FScattered clouds.6 mph49%29.98 "HgN/A
2:50 PM90 °FPassing clouds.7 mph46%29.95 "HgN/A
1:50 PM90 °FPassing clouds.10 mph46%29.98 "HgN/A
12:50 PM90 °FSunny.7 mph36%29.98 "Hg10 mi
Weather by CustomWeather, © 2014

See weather overviewHow to use our weather pages